Tracking 18850 objects as of 22-Nov-2017
HD Live streaming from Space Station
objects crossing your sky now

FLOCK 3P 61

Track FLOCK 3P 61 now!
10-day predictions
FLOCK 3P 61 is classified as:


NORAD ID: 42009
Int'l Code: 2017-008BP
Perigee: 496.4 km
Apogee: 508.3 km
Inclination: 97.5 °
Period: 94.5 minutes
Semi major axis: 6873 km
RCS: Unknown
Launch date: February 15, 2017
Source: United States (US)
Launch site: SRIHARIKOTA (SRI)
aabbcc
Your satellite tracking list
Your tracking list is empty




NASA's NSSDC Master Catalog

Two Line Element Set (TLE):
1 42009U 17008BP  17325.69115396 +.00005233 +00000-0 +22190-3 0  9999
2 42009 097.4779 026.6287 0008634 034.3508 325.8285 15.23531161042484
Source of the keplerian elements: AFSPC